Time,TemperatureF,DewpointF,PressureIn,WindDirection,WindDirectionDegrees,WindSpeedMPH,WindSpeedGustMPH,Humidity,HourlyPrecipIn,Conditions,Clouds,dailyrainin,SoftwareType,DateUTC
2013-01-28 00:02:00,26.0,20.0,29.84,ESE,104,1.0,2.0,79,0.00,,,0.00,,2013-01-28 06:02:00,
2013-01-28 00:11:00,26.0,20.0,29.84,ESE,104,1.0,2.0,79,0.00,,,0.00,,2013-01-28 06:11:00,
2013-01-28 00:22:00,26.0,20.0,29.84,ESE,104,0.0,2.0,79,0.00,,,0.00,,2013-01-28 06:22:00,
2013-01-28 00:32:00,26.0,20.0,29.83,ESE,104,1.0,2.0,79,0.00,,,0.00,,2013-01-28 06:32:00,
2013-01-28 00:42:00,26.0,20.0,29.83,ESE,104,1.0,2.0,79,0.00,,,0.00,,2013-01-28 06:42:00,
2013-01-28 00:52:00,26.0,20.0,29.84,ESE,104,1.0,2.0,79,0.00,,,0.00,,2013-01-28 06:52:00,
2013-01-28 01:02:00,26.0,20.0,29.84,ESE,104,1.0,3.0,79,0.00,,,0.00,,2013-01-28 07:02:00,
2013-01-28 01:11:00,26.0,20.0,29.84,ESE,104,1.0,3.0,79,0.00,,,0.00,,2013-01-28 07:11:00,
2013-01-28 01:21:00,27.0,21.0,29.84,ESE,104,0.0,0.0,79,0.00,,,0.00,,2013-01-28 07:21:00,
2013-01-28 01:32:00,27.0,21.0,29.84,ESE,104,0.0,0.0,79,0.00,,,0.00,,2013-01-28 07:32:00,
2013-01-28 01:42:00,27.0,21.0,29.84,ESE,104,0.0,0.0,79,0.00,,,0.00,,2013-01-28 07:42:00,
2013-01-28 01:51:00,27.0,21.0,29.84,ESE,104,0.0,0.0,79,0.00,,,0.00,,2013-01-28 07:51:00,
2013-01-28 02:01:00,27.0,21.0,29.84,ESE,104,0.0,0.0,79,0.00,,,0.00,,2013-01-28 08:01:00,
2013-01-28 02:11:00,27.0,21.0,29.84,ESE,104,0.0,0.0,79,0.00,,,0.00,,2013-01-28 08:11:00,
2013-01-28 02:21:00,27.0,21.0,29.84,ESE,104,0.0,0.0,79,0.00,,,0.00,,2013-01-28 08:21:00,
2013-01-28 02:32:00,27.0,21.0,29.83,ESE,104,1.0,2.0,79,0.00,,,0.00,,2013-01-28 08:32:00,
2013-01-28 02:42:00,27.0,21.0,29.83,ESE,104,1.0,2.0,79,0.00,,,0.00,,2013-01-28 08:42:00,
2013-01-28 02:52:00,27.0,21.0,29.83,SE,128,1.0,3.0,79,0.00,,,0.00,,2013-01-28 08:52:00,
2013-01-28 03:02:00,27.0,21.0,29.84,SE,127,0.0,3.0,79,0.00,,,0.00,,2013-01-28 09:02:00,
2013-01-28 03:11:00,27.0,21.0,29.84,SE,127,0.0,3.0,79,0.00,,,0.00,,2013-01-28 09:11:00,
2013-01-28 03:21:00,27.0,21.0,29.84,SE,127,1.0,3.0,79,0.00,,,0.00,,2013-01-28 09:21:00,
2013-01-28 03:32:00,27.0,21.0,29.84,SSE,153,1.0,3.0,79,0.00,,,0.00,,2013-01-28 09:32:00,
2013-01-28 03:42:00,27.0,21.0,29.84,SSE,153,1.0,3.0,79,0.00,,,0.00,,2013-01-28 09:42:00,
2013-01-28 03:51:00,27.0,21.0,29.82,SE,134,2.0,4.0,79,0.00,,,0.00,,2013-01-28 09:51:00,
2013-01-28 04:02:00,27.0,21.0,29.82,SE,138,1.0,4.0,79,0.00,,,0.00,,2013-01-28 10:02:00,
2013-01-28 04:11:00,27.0,21.0,29.82,SE,138,1.0,4.0,79,0.00,,,0.00,,2013-01-28 10:11:00,
2013-01-28 04:21:00,27.0,21.0,29.85,SW,231,3.0,6.0,79,0.00,,,0.00,,2013-01-28 10:21:00,
2013-01-28 04:32:00,27.0,21.0,29.84,SSE,162,2.0,5.0,79,0.00,,,0.00,,2013-01-28 10:32:00,
2013-01-28 04:41:00,27.0,21.0,29.84,SSE,162,2.0,5.0,79,0.00,,,0.00,,2013-01-28 10:41:00,
2013-01-28 04:51:00,28.0,22.0,29.85,SSW,211,1.0,5.0,79,0.00,,,0.00,,2013-01-28 10:51:00,
2013-01-28 05:02:00,28.0,22.0,29.84,SW,225,1.0,5.0,79,0.00,,,0.00,,2013-01-28 11:02:00,
2013-01-28 05:11:00,28.0,22.0,29.84,SW,225,1.0,5.0,79,0.00,,,0.00,,2013-01-28 11:11:00,
2013-01-28 05:22:00,28.0,22.0,29.84,WSW,238,1.0,4.0,79,0.00,,,0.00,,2013-01-28 11:22:00,
2013-01-28 05:32:00,28.0,22.0,29.84,WSW,248,0.0,3.0,79,0.00,,,0.00,,2013-01-28 11:32:00,
2013-01-28 05:42:00,28.0,22.0,29.84,WSW,248,0.0,3.0,79,0.00,,,0.00,,2013-01-28 11:42:00,
2013-01-28 05:52:00,29.0,23.0,29.85,WSW,248,2.0,5.0,79,0.00,,,0.00,,2013-01-28 11:52:00,
2013-01-28 06:03:00,29.0,24.0,29.84,WSW,242,2.0,5.0,80,0.00,,,0.00,,2013-01-28 12:03:00,
2013-01-28 06:12:00,29.0,24.0,29.84,WSW,242,2.0,5.0,80,0.00,,,0.00,,2013-01-28 12:12:00,
2013-01-28 06:23:00,30.0,25.0,29.85,WSW,241,1.0,3.0,80,0.00,,,0.00,,2013-01-28 12:23:00,
2013-01-28 06:33:00,30.0,25.0,29.85,WSW,241,1.0,3.0,80,0.00,,,0.00,,2013-01-28 12:33:00,
2013-01-28 06:42:00,30.0,25.0,29.85,WSW,241,1.0,3.0,80,0.00,,,0.00,,2013-01-28 12:42:00,
2013-01-28 06:52:00,30.0,25.0,29.86,WSW,257,5.0,7.0,80,0.00,,,0.00,,2013-01-28 12:52:00,
2013-01-28 07:03:00,30.0,24.0,29.85,West,261,3.0,7.0,79,0.00,,,0.00,,2013-01-28 13:03:00,
2013-01-28 07:12:00,30.0,24.0,29.85,West,261,3.0,7.0,79,0.00,,,0.00,,2013-01-28 13:12:00,
2013-01-28 07:23:00,30.0,24.0,29.85,West,261,3.0,7.0,79,0.00,,,0.00,,2013-01-28 13:23:00,
2013-01-28 07:33:00,29.0,23.0,29.85,West,267,1.0,3.0,78,0.00,,,0.00,,2013-01-28 13:33:00,
2013-01-28 07:42:00,29.0,23.0,29.85,West,267,1.0,3.0,78,0.00,,,0.00,,2013-01-28 13:42:00,
2013-01-28 07:53:00,29.0,23.0,29.84,West,267,1.0,3.0,78,0.00,,,0.00,,2013-01-28 13:53:00,
2013-01-28 08:03:00,29.0,23.0,29.85,SSW,213,1.0,4.0,78,0.00,,,0.00,,2013-01-28 14:03:00,
2013-01-28 08:12:00,29.0,23.0,29.85,SSW,213,1.0,4.0,78,0.00,,,0.00,,2013-01-28 14:12:00,
2013-01-28 08:22:00,28.0,22.0,29.85,SSW,213,1.0,6.0,77,0.00,,,0.00,,2013-01-28 14:22:00,
2013-01-28 08:33:00,28.0,22.0,29.85,SSW,194,3.0,6.0,77,0.00,,,0.00,,2013-01-28 14:33:00,
2013-01-28 08:43:00,28.0,22.0,29.85,SSW,194,3.0,6.0,77,0.00,,,0.00,,2013-01-28 14:43:00,
2013-01-28 08:52:00,27.0,21.0,29.86,SSW,196,4.0,7.0,77,0.00,,,0.00,,2013-01-28 14:52:00,
2013-01-28 09:03:00,27.0,20.0,29.86,SW,214,3.0,8.0,76,0.00,,,0.00,,2013-01-28 15:03:00,
2013-01-28 09:12:00,27.0,20.0,29.86,SW,214,3.0,8.0,76,0.00,,,0.00,,2013-01-28 15:12:00,
2013-01-28 09:23:00,26.0,19.0,29.85,WSW,250,6.0,9.0,76,0.00,,,0.00,,2013-01-28 15:23:00,
2013-01-28 09:33:00,26.0,19.0,29.86,WSW,248,7.0,10.0,75,0.00,,,0.00,,2013-01-28 15:33:00,
2013-01-28 09:43:00,26.0,19.0,29.86,WSW,248,7.0,10.0,75,0.00,,,0.00,,2013-01-28 15:43:00,
2013-01-28 09:52:00,26.0,19.0,29.86,WSW,241,4.0,9.0,76,0.00,,,0.00,,2013-01-28 15:52:00,
2013-01-28 10:04:00,26.0,19.0,29.85,WSW,248,2.0,6.0,76,0.00,,,0.00,,2013-01-28 16:04:00,
2013-01-28 10:12:00,26.0,19.0,29.85,WSW,248,2.0,6.0,76,0.00,,,0.00,,2013-01-28 16:12:00,
2013-01-28 10:22:00,27.0,21.0,29.85,WSW,250,0.0,4.0,77,0.00,,,0.00,,2013-01-28 16:22:00,
2013-01-28 10:32:00,27.0,21.0,29.85,WSW,248,2.0,4.0,77,0.00,,,0.00,,2013-01-28 16:32:00,
2013-01-28 10:43:00,27.0,21.0,29.85,WSW,248,2.0,4.0,77,0.00,,,0.00,,2013-01-28 16:43:00,
2013-01-28 10:52:00,28.0,21.0,29.85,WSW,254,4.0,9.0,76,0.00,,,0.00,,2013-01-28 16:52:00,
2013-01-28 11:02:00,28.0,21.0,29.86,WSW,247,5.0,7.0,76,0.00,,,0.00,,2013-01-28 17:02:00,
2013-01-28 11:12:00,28.0,21.0,29.86,WSW,247,5.0,7.0,76,0.00,,,0.00,,2013-01-28 17:12:00,
2013-01-28 11:23:00,28.0,21.0,29.88,West,264,6.0,10.0,76,0.00,,,0.00,,2013-01-28 17:23:00,
2013-01-28 11:32:00,29.0,22.0,29.88,WSW,255,4.0,9.0,75,0.00,,,0.00,,2013-01-28 17:32:00,
2013-01-28 11:42:00,29.0,22.0,29.88,WSW,255,4.0,9.0,75,0.00,,,0.00,,2013-01-28 17:42:00,
2013-01-28 11:52:00,29.0,22.0,29.88,WSW,245,3.0,7.0,75,0.00,,,0.00,,2013-01-28 17:52:00,
2013-01-28 12:03:00,30.0,23.0,29.87,West,273,4.0,6.0,74,0.00,,,0.00,,2013-01-28 18:03:00,
2013-01-28 12:12:00,30.0,23.0,29.87,West,273,4.0,6.0,74,0.00,,,0.00,,2013-01-28 18:12:00,
2013-01-28 12:23:00,30.0,23.0,29.86,West,275,4.0,6.0,74,0.00,,,0.00,,2013-01-28 18:23:00,
2013-01-28 12:33:00,30.0,22.0,29.85,WSW,256,2.0,7.0,73,0.00,,,0.00,,2013-01-28 18:33:00,
2013-01-28 12:42:00,30.0,22.0,29.85,WSW,256,2.0,7.0,73,0.00,,,0.00,,2013-01-28 18:42:00,
2013-01-28 12:52:00,30.0,22.0,29.84,West,276,1.0,4.0,72,0.00,,,0.00,,2013-01-28 18:52:00,
2013-01-28 13:02:00,31.0,23.0,29.84,West,269,3.0,5.0,72,0.00,,,0.00,,2013-01-28 19:02:00,
2013-01-28 13:12:00,31.0,23.0,29.84,West,269,3.0,5.0,72,0.00,,,0.00,,2013-01-28 19:12:00,
2013-01-28 13:22:00,31.0,23.0,29.83,West,279,0.0,3.0,71,0.00,,,0.00,,2013-01-28 19:22:00,
2013-01-28 13:32:00,31.0,23.0,29.83,West,279,0.0,3.0,71,0.00,,,0.00,,2013-01-28 19:32:00,
2013-01-28 13:42:00,31.0,23.0,29.83,West,279,0.0,3.0,71,0.00,,,0.00,,2013-01-28 19:42:00,
2013-01-28 13:52:00,32.0,23.0,29.81,West,259,0.0,3.0,70,0.00,,,0.00,,2013-01-28 19:52:00,
2013-01-28 14:02:00,32.0,23.0,29.81,SSE,161,1.0,3.0,69,0.00,,,0.00,,2013-01-28 20:02:00,
2013-01-28 14:12:00,32.0,23.0,29.81,SSE,161,1.0,3.0,69,0.00,,,0.00,,2013-01-28 20:12:00,
2013-01-28 14:22:00,32.0,23.0,29.80,SW,228,1.0,3.0,68,0.00,,,0.00,,2013-01-28 20:22:00,
2013-01-28 14:33:00,31.0,22.0,29.81,WSW,242,0.0,4.0,70,0.00,,,0.00,,2013-01-28 20:33:00,
2013-01-28 14:42:00,31.0,22.0,29.81,WSW,242,0.0,4.0,70,0.00,,,0.00,,2013-01-28 20:42:00,
2013-01-28 14:52:00,31.0,22.0,29.80,ESE,118,0.0,3.0,70,0.00,,,0.00,,2013-01-28 20:52:00,
2013-01-28 15:03:00,31.0,22.0,29.80,SW,221,0.0,2.0,70,0.00,,,0.00,,2013-01-28 21:03:00,
2013-01-28 15:12:00,31.0,22.0,29.80,SW,221,0.0,2.0,70,0.00,,,0.00,,2013-01-28 21:12:00,
2013-01-28 15:22:00,32.0,23.0,29.82,WSW,255,2.0,4.0,70,0.00,,,0.00,,2013-01-28 21:22:00,
2013-01-28 15:33:00,32.0,23.0,29.82,WSW,252,0.0,4.0,69,0.00,,,0.00,,2013-01-28 21:33:00,
2013-01-28 15:43:00,32.0,23.0,29.82,WSW,252,0.0,4.0,69,0.00,,,0.00,,2013-01-28 21:43:00,
2013-01-28 15:52:00,32.0,23.0,29.83,West,261,0.0,3.0,70,0.00,,,0.00,,2013-01-28 21:52:00,
2013-01-28 16:02:00,32.0,23.0,29.83,NNW,328,0.0,3.0,70,0.00,,,0.00,,2013-01-28 22:02:00,
2013-01-28 16:11:00,32.0,23.0,29.83,NNW,328,0.0,3.0,70,0.00,,,0.00,,2013-01-28 22:11:00,
2013-01-28 16:23:00,32.0,23.0,29.83,NNW,328,0.0,3.0,70,0.00,,,0.00,,2013-01-28 22:23:00,
2013-01-28 16:32:00,31.0,22.0,29.83,NNW,328,0.0,2.0,70,0.00,,,0.00,,2013-01-28 22:32:00,
2013-01-28 16:42:00,31.0,22.0,29.83,NNW,328,0.0,2.0,70,0.00,,,0.00,,2013-01-28 22:42:00,
2013-01-28 16:52:00,31.0,23.0,29.82,NNW,338,0.0,3.0,71,0.00,,,0.00,,2013-01-28 22:52:00,
2013-01-28 17:02:00,31.0,23.0,29.82,West,263,0.0,2.0,72,0.00,,,0.00,,2013-01-28 23:02:00,
2013-01-28 17:12:00,31.0,23.0,29.82,West,263,0.0,2.0,72,0.00,,,0.00,,2013-01-28 23:12:00,
2013-01-28 17:22:00,31.0,23.0,29.80,NNE,26,0.0,3.0,72,0.00,,,0.00,,2013-01-28 23:22:00,
2013-01-28 17:32:00,31.0,23.0,29.80,NNE,19,0.0,4.0,73,0.00,,,0.00,,2013-01-28 23:32:00,
2013-01-28 17:42:00,31.0,23.0,29.80,NNE,19,0.0,4.0,73,0.00,,,0.00,,2013-01-28 23:42:00,
2013-01-28 17:52:00,31.0,24.0,29.80,NNW,336,0.0,2.0,74,0.00,,,0.00,,2013-01-28 23:52:00,
2013-01-28 18:02:00,30.0,23.0,29.79,NE,40,2.0,4.0,74,0.00,,,0.00,,2013-01-29 00:02:00,
2013-01-28 18:12:00,30.0,23.0,29.79,NE,40,2.0,4.0,74,0.00,,,0.00,,2013-01-29 00:12:00,
2013-01-28 18:22:00,30.0,23.0,29.79,NE,40,2.0,4.0,74,0.00,,,0.00,,2013-01-29 00:22:00,
2013-01-28 18:32:00,30.0,23.0,29.79,NE,40,2.0,4.0,74,0.00,,,0.00,,2013-01-29 00:32:00,
2013-01-28 18:42:00,30.0,23.0,29.79,NE,40,2.0,4.0,74,0.00,,,0.00,,2013-01-29 00:42:00,
2013-01-28 18:52:00,30.0,24.0,29.80,NE,36,2.0,5.0,77,0.00,,,0.00,,2013-01-29 00:52:00,
2013-01-28 19:02:00,29.0,22.0,29.80,North,355,1.0,7.0,76,0.00,,,0.00,,2013-01-29 01:02:00,
2013-01-28 19:12:00,29.0,22.0,29.80,North,355,1.0,7.0,76,0.00,,,0.00,,2013-01-29 01:12:00,
2013-01-28 19:23:00,28.0,21.0,29.79,North,355,3.0,9.0,76,0.00,,,0.00,,2013-01-29 01:23:00,
2013-01-28 19:32:00,27.0,21.0,29.79,NW,319,1.0,7.0,77,0.00,,,0.00,,2013-01-29 01:32:00,
2013-01-28 19:42:00,27.0,21.0,29.79,NW,319,1.0,7.0,77,0.00,,,0.00,,2013-01-29 01:42:00,
2013-01-28 19:52:00,27.0,21.0,29.78,NNW,344,2.0,8.0,77,0.00,,,0.00,,2013-01-29 01:52:00,
2013-01-28 20:02:00,27.0,21.0,29.79,NNE,20,3.0,7.0,77,0.00,,,0.00,,2013-01-29 02:02:00,
2013-01-28 20:12:00,27.0,21.0,29.79,NNE,20,3.0,7.0,77,0.00,,,0.00,,2013-01-29 02:12:00,
2013-01-28 20:22:00,26.0,20.0,29.78,West,264,2.0,7.0,77,0.00,,,0.00,,2013-01-29 02:22:00,
2013-01-28 20:33:00,26.0,20.0,29.79,NNW,344,1.0,6.0,77,0.00,,,0.00,,2013-01-29 02:33:00,
2013-01-28 20:42:00,26.0,20.0,29.79,NNW,344,1.0,6.0,77,0.00,,,0.00,,2013-01-29 02:42:00,
2013-01-28 20:52:00,25.0,19.0,29.78,North,349,3.0,9.0,76,0.00,,,0.00,,2013-01-29 02:52:00,
2013-01-28 21:03:00,25.0,19.0,29.79,NNW,336,4.0,7.0,76,0.00,,,0.00,,2013-01-29 03:03:00,
2013-01-28 21:11:00,25.0,19.0,29.79,NNW,336,4.0,7.0,76,0.00,,,0.00,,2013-01-29 03:11:00,
2013-01-28 21:22:00,25.0,19.0,29.78,NW,316,2.0,6.0,76,0.00,,,0.00,,2013-01-29 03:22:00,
2013-01-28 21:32:00,24.0,18.0,29.77,North,350,1.0,7.0,77,0.00,,,0.00,,2013-01-29 03:32:00,
2013-01-28 21:42:00,24.0,18.0,29.77,North,350,1.0,7.0,77,0.00,,,0.00,,2013-01-29 03:42:00,
2013-01-28 21:52:00,24.0,18.0,29.76,NW,314,3.0,6.0,77,0.00,,,0.00,,2013-01-29 03:52:00,
2013-01-28 22:02:00,24.0,18.0,29.75,NNW,329,3.0,8.0,77,0.00,,,0.00,,2013-01-29 04:02:00,
2013-01-28 22:11:00,24.0,18.0,29.75,NNW,329,3.0,8.0,77,0.00,,,0.00,,2013-01-29 04:11:00,
2013-01-28 22:22:00,24.0,18.0,29.74,NW,310,4.0,10.0,77,0.00,,,0.00,,2013-01-29 04:22:00,
2013-01-28 22:32:00,24.0,18.0,29.74,NW,313,3.0,10.0,77,0.00,,,0.00,,2013-01-29 04:32:00,
2013-01-28 22:41:00,24.0,18.0,29.74,NW,313,3.0,10.0,77,0.00,,,0.00,,2013-01-29 04:41:00,
2013-01-28 22:52:00,24.0,18.0,29.74,North,351,1.0,8.0,77,0.00,,,0.00,,2013-01-29 04:52:00,
2013-01-28 23:03:00,24.0,18.0,29.74,NW,326,1.0,8.0,77,0.00,,,0.00,,2013-01-29 05:03:00,
2013-01-28 23:12:00,24.0,18.0,29.74,NW,326,1.0,8.0,77,0.00,,,0.00,,2013-01-29 05:12:00,
2013-01-28 23:21:00,24.0,18.0,29.73,NW,313,1.0,5.0,77,0.00,,,0.00,,2013-01-29 05:21:00,
2013-01-28 23:32:00,23.0,17.0,29.72,WNW,290,2.0,5.0,77,0.00,,,0.00,,2013-01-29 05:32:00,
2013-01-28 23:42:00,23.0,17.0,29.72,WNW,290,2.0,5.0,77,0.00,,,0.00,,2013-01-29 05:42:00,
2013-01-28 23:52:00,23.0,17.0,29.72,WSW,254,0.0,5.0,77,0.00,,,0.00,,2013-01-29 05:52:00,